| time (UTC) | temp C | wind direction | speed KPH | gust KPH | rain 1hr cm | rain 24hr cm | rain mn cm | humidity % | barometer mb |
| 20260906221607 | 32 | 63 | 1.6 | 14.5 | 0.00 | 0.00 | 0.00 | 35 | 1015.1 |
| 20260906220105 | 32 | 245 | 1.6 | 6.4 | 0.00 | 0.00 | 0.00 | 35 | 1015.4 |
| 20260906214607 | 32 | 0 | 3.2 | 8.0 | 0.00 | 0.00 | 0.00 | 35 | 1015.6 |
| 20260906213103 | 32 | 244 | 1.6 | 6.4 | 0.00 | 0.00 | 0.00 | 35 | 1015.8 |
| 20260906211604 | 32 | 245 | 4.8 | 12.9 | 0.00 | 0.00 | 0.00 | 35 | 1016.0 |
| 20260906210109 | 31 | 78 | 1.6 | 11.3 | 0.00 | 0.00 | 0.00 | 36 | 1016.6 |
| 20260906204615 | 31 | 111 | 1.6 | 6.4 | 0.00 | 0.00 | 0.00 | 35 | 1016.7 |
| 20260906203104 | 31 | 0 | 1.6 | 11.3 | 0.00 | 0.00 | 0.00 | 36 | 1016.9 |
| 20260906201604 | 31 | 198 | 1.6 | 11.3 | 0.00 | 0.00 | 0.00 | 36 | 1016.9 |
| 20260906200106 | 31 | 34 | 3.2 | 6.4 | 0.00 | 0.00 | 0.00 | 38 | 1016.9 |
| 20260906194619 | 31 | 64 | 1.6 | 9.7 | 0.00 | 0.00 | 0.00 | 36 | 1017.0 |
| 20260906193105 | 30 | 59 | 3.2 | 9.7 | 0.00 | 0.00 | 0.00 | 41 | 1017.2 |
| 20260906191613 | 30 | 44 | 3.2 | 8.0 | 0.00 | 0.00 | 0.00 | 39 | 1017.3 |
| 20260906190105 | 29 | 32 | 1.6 | 8.0 | 0.00 | 0.00 | 0.00 | 40 | 1017.7 |
| 20260906184620 | 29 | 180 | 1.6 | 6.4 | 0.00 | 0.00 | 0.00 | 43 | 1018.0 |
| 20260906183115 | 28 | 0 | 1.6 | 8.0 | 0.00 | 0.00 | 0.00 | 48 | 1018.4 |
| 20260906181607 | 28 | 225 | 1.6 | 8.0 | 0.00 | 0.00 | 0.00 | 47 | 1018.6 |
| 20260906180132 | 27 | 72 | 0.0 | 6.4 | 0.00 | 0.00 | 0.00 | 52 | 1018.8 |
| 20260906174625 | 26 | 336 | 0.0 | 8.0 | 0.00 | 0.00 | 0.00 | 55 | 1019.2 |
| 20260906173108 | 25 | 72 | 0.0 | 4.8 | 0.00 | 0.00 | 0.00 | 58 | 1019.6 |
| 20260906171615 | 24 | 263 | 0.0 | 6.4 | 0.00 | 0.00 | 0.00 | 60 | 1019.7 |
| 20260906170122 | 24 | 50 | 1.6 | 4.8 | 0.00 | 0.00 | 0.00 | 61 | 1020.1 |
| 20260906164605 | 23 | 231 | 1.6 | 6.4 | 0.00 | 0.00 | 0.00 | 63 | 1020.3 |
| 20260906163117 | 23 | 0 | 0.0 | 3.2 | 0.00 | 0.00 | 0.00 | 64 | 1020.1 |
| 20260906161623 | 22 | 298 | 1.6 | 6.4 | 0.00 | 0.00 | 0.00 | 65 | 1020.0 |
| 20260906160106 | 22 | 30 | 0.0 | 4.8 | 0.00 | 0.00 | 0.00 | 67 | 1020.0 |
| 20260906154608 | 21 | 341 | 1.6 | 6.4 | 0.00 | 0.00 | 0.00 | 71 | 1020.0 |
| 20260906153121 | 21 | 352 | 0.0 | 4.8 | 0.00 | 0.00 | 0.00 | 70 | 1020.2 |
| 20260906151602 | 20 | 325 | 0.0 | 8.0 | 0.00 | 0.00 | 0.00 | 74 | 1020.1 |
| 20260906150110 | 20 | 303 | 0.0 | 6.4 | 0.00 | 0.00 | 0.00 | 74 | 1020.1 |
| 20260906144605 | 19 | 336 | 0.0 | 11.3 | 0.00 | 0.00 | 0.00 | 75 | 1020.1 |
| 20260906143106 | 18 | 302 | 3.2 | 6.4 | 0.00 | 0.00 | 0.00 | 76 | 1020.1 |
| 20260906141622 | 18 | 304 | 1.6 | 8.0 | 0.00 | 0.00 | 0.00 | 78 | 1020.3 |
| 20260906140103 | 17 | 300 | 1.6 | 4.8 | 0.00 | 0.00 | 0.00 | 80 | 1020.1 |
| 20260906134603 | 17 | 0 | 1.6 | 6.4 | 0.00 | 0.00 | 0.00 | 80 | 1020.0 |
| 20260906133112 | 16 | 300 | 1.6 | 4.8 | 0.00 | 0.00 | 0.00 | 80 | 1020.0 |
| 20260906131610 | 16 | 0 | 0.0 | 3.2 | 0.00 | 0.00 | 0.00 | 79 | 1019.9 |
| 20260906130106 | 16 | 0 | 0.0 | 1.6 | 0.00 | 0.00 | 0.00 | 80 | 1019.8 |
| 20260906124609 | 16 | 0 | 0.0 | 1.6 | 0.00 | 0.00 | 0.00 | 81 | 1019.6 |
| 20260906123109 | 16 | 0 | 0.0 | 3.2 | 0.00 | 0.00 | 0.00 | 81 | 1019.5 |
| 20260906121615 | 16 | 0 | 0.0 | 0.0 | 0.00 | 0.00 | 0.00 | 81 | 1019.4 |
| 20260906120115 | 16 | 0 | 0.0 | 0.0 | 0.00 | 0.00 | 0.00 | 80 | 1019.5 |
| 20260906114611 | 16 | 0 | 0.0 | 1.6 | 0.00 | 0.00 | 0.00 | 80 | 1019.6 |
| 20260906113103 | 16 | 0 | 0.0 | 1.6 | 0.00 | 0.00 | 0.00 | 81 | 1019.7 |
| 20260906111607 | 16 | 0 | 0.0 | 3.2 | 0.00 | 0.00 | 0.00 | 81 | 1019.5 |
| 20260906110103 | 16 | 0 | 0.0 | 4.8 | 0.00 | 0.00 | 0.00 | 82 | 1019.5 |
| 20260906104604 | 16 | 0 | 0.0 | 0.0 | 0.00 | 0.00 | 0.00 | 80 | 1019.4 |
| 20260906103109 | 16 | 0 | 0.0 | 1.6 | 0.00 | 0.00 | 0.00 | 79 | 1019.4 |
| 20260906101625 | 17 | 0 | 0.0 | 0.0 | 0.00 | 0.00 | 0.00 | 78 | 1019.4 |
| 20260906094607 | 17 | 0 | 0.0 | 1.6 | 0.00 | 0.00 | 0.00 | 75 | 1019.4 |
| 20260906093105 | 17 | 0 | 0.0 | 3.2 | 0.00 | 0.00 | 0.00 | 74 | 1019.4 |
| 20260906091603 | 18 | 52 | 0.0 | 1.6 | 0.00 | 0.00 | 0.00 | 71 | 1019.2 |
| 20260906090104 | 18 | 0 | 0.0 | 1.6 | 0.00 | 0.00 | 0.00 | 68 | 1018.8 |
| 20260906084606 | 19 | 12 | 0.0 | 3.2 | 0.00 | 0.00 | 0.00 | 66 | 1018.6 |
| 20260906083105 | 20 | 0 | 0.0 | 4.8 | 0.00 | 0.00 | 0.00 | 61 | 1018.5 |
| 20260906081606 | 20 | 0 | 0.0 | 4.8 | 0.00 | 0.00 | 0.00 | 58 | 1018.6 |
| 20260906080104 | 21 | 9 | 0.0 | 4.8 | 0.00 | 0.00 | 0.00 | 52 | 1018.6 |
| 20260906074605 | 21 | 41 | 1.6 | 4.8 | 0.00 | 0.00 | 0.00 | 48 | 1018.3 |
| 20260906073103 | 21 | 301 | 3.2 | 8.0 | 0.00 | 0.00 | 0.00 | 49 | 1018.6 |
| 20260906071607 | 21 | 307 | 1.6 | 4.8 | 0.00 | 0.00 | 0.00 | 50 | 1018.6 |
| 20260906070110 | 21 | 269 | 1.6 | 6.4 | 0.00 | 0.00 | 0.00 | 49 | 1018.4 |
| 20260906064603 | 21 | 0 | 0.0 | 3.2 | 0.00 | 0.00 | 0.00 | 50 | 1018.6 |
| 20260906063105 | 22 | 0 | 0.0 | 1.6 | 0.00 | 0.00 | 0.00 | 49 | 1018.7 |
| 20260906061606 | 22 | 0 | 0.0 | 0.0 | 0.00 | 0.00 | 0.00 | 49 | 1018.8 |
| 20260906060135 | 22 | 0 | 0.0 | 0.0 | 0.00 | 0.00 | 0.00 | 46 | 1018.2 |
| 20260906054616 | 22 | 0 | 0.0 | 0.0 | 0.00 | 0.00 | 0.00 | 46 | 1018.6 |
| 20260906053102 | 22 | 0 | 0.0 | 1.6 | 0.00 | 0.00 | 0.00 | 44 | 1019.1 |
| 20260906051605 | 22 | 0 | 0.0 | 3.2 | 0.00 | 0.00 | 0.00 | 44 | 1019.4 |
| 20260906050109 | 22 | 0 | 0.0 | 6.4 | 0.00 | 0.00 | 0.00 | 44 | 1019.4 |
| 20260906044602 | 22 | 232 | 0.0 | 4.8 | 0.00 | 0.00 | 0.00 | 45 | 1019.1 |
| 20260906043107 | 22 | 0 | 0.0 | 3.2 | 0.00 | 0.00 | 0.00 | 43 | 1018.5 |
| 20260906041602 | 22 | 0 | 0.0 | 1.6 | 0.00 | 0.00 | 0.00 | 42 | 1018.7 |
| 20260906040109 | 23 | 0 | 0.0 | 1.6 | 0.00 | 0.00 | 0.00 | 41 | 1018.3 |
| 20260906034607 | 23 | 360 | 0.0 | 1.6 | 0.00 | 0.00 | 0.00 | 40 | 1018.0 |
| 20260906033111 | 23 | 0 | 0.0 | 1.6 | 0.00 | 0.00 | 0.00 | 40 | 1018.0 |
| 20260906031604 | 23 | 0 | 0.0 | 1.6 | 0.00 | 0.00 | 0.00 | 39 | 1017.9 |
| 20260906030106 | 23 | 0 | 0.0 | 1.6 | 0.00 | 0.00 | 0.00 | 40 | 1017.3 |
| 20260906024621 | 23 | 0 | 0.0 | 1.6 | 0.00 | 0.00 | 0.00 | 40 | 1017.1 |
| 20260906023104 | 24 | 0 | 0.0 | 3.2 | 0.00 | 0.00 | 0.00 | 39 | 1017.1 |
| 20260906021607 | 25 | 0 | 0.0 | 1.6 | 0.00 | 0.00 | 0.00 | 37 | 1017.1 |
| 20260906020109 | 26 | 300 | 0.0 | 3.2 | 0.00 | 0.00 | 0.00 | 36 | 1017.1 |
| 20260906014607 | 26 | 0 | 1.6 | 4.8 | 0.00 | 0.00 | 0.00 | 35 | 1016.8 |
| 20260906013102 | 27 | 310 | 1.6 | 6.4 | 0.00 | 0.00 | 0.00 | 34 | 1016.6 |
| 20260906011602 | 27 | 303 | 1.6 | 8.0 | 0.00 | 0.00 | 0.00 | 33 | 1016.7 |
| 20260906010143 | 28 | 311 | 1.6 | 9.7 | 0.00 | 0.00 | 0.00 | 31 | 1016.6 |
| 20260906004617 | 28 | 319 | 1.6 | 6.4 | 0.00 | 0.00 | 0.00 | 30 | 1016.6 |
| 20260906003106 | 29 | 5 | 0.0 | 8.0 | 0.00 | 0.00 | 0.00 | 29 | 1016.6 |
| 20260906001607 | 30 | 5 | 0.0 | 6.4 | 0.00 | 0.00 | 0.00 | 28 | 1016.5 |
| 20260906000105 | 30 | 319 | 0.0 | 6.4 | 0.00 | 0.00 | 0.00 | 28 | 1016.4 |
| 20260905234610 | 30 | 360 | 0.0 | 3.2 | 0.00 | 0.00 | 0.00 | 29 | 1016.4 |
| 20260905233106 | 30 | 0 | 0.0 | 4.8 | 0.00 | 0.00 | 0.00 | 27 | 1016.3 |
| 20260905231619 | 30 | 0 | 0.0 | 1.6 | 0.00 | 0.00 | 0.00 | 28 | 1016.3 |
| 20260905230103 | 31 | 0 | 0.0 | 3.2 | 0.00 | 0.00 | 0.00 | 26 | 1016.1 |
| 20260905224604 | 32 | 86 | 0.0 | 4.8 | 0.00 | 0.00 | 0.00 | 25 | 1016.1 |
| 20260905223103 | 32 | 9 | 1.6 | 4.8 | 0.00 | 0.00 | 0.00 | 26 | 1016.1 |